N775CC KCOS-KEGE

Flight info

Callsign N775CC
Flight time N/A
Altitude 24000
Route LPINE VAAIL1
Aircraft PC12/L-VGD/C

Departure

Time N/A
Airport City of Colorado Springs Municipal Airport (KCOS)

Arrival

Time 2026-04-30 03:07
Airport Eagle County Regional Airport (KEGE)
Time Latitude Longitude Altitude Speed Heading
2026-04-30 02:46 40.11522 -105.67481 24212 ft 224 kts 263°
2026-04-30 02:47 40.11424 -105.69518 24218 ft 225 kts 263°
2026-04-30 02:47 40.11324 -105.71565 24225 ft 226 kts 263°
2026-04-30 02:47 40.11224 -105.73614 24226 ft 226 kts 263°
2026-04-30 02:47 40.11122 -105.75668 24232 ft 227 kts 263°
2026-04-30 02:48 40.11020 -105.77727 24235 ft 227 kts 263°
2026-04-30 02:48 40.10917 -105.79785 23951 ft 233 kts 263°
2026-04-30 02:48 40.10813 -105.81913 23512 ft 233 kts 263°
2026-04-30 02:48 40.10714 -105.84005 23046 ft 228 kts 264°
2026-04-30 02:49 40.10615 -105.86054 22583 ft 223 kts 263°
2026-04-30 02:49 40.10515 -105.88066 22130 ft 220 kts 264°
2026-04-30 02:49 40.10415 -105.90043 21709 ft 218 kts 264°
2026-04-30 02:49 40.10311 -105.92044 21323 ft 223 kts 264°
2026-04-30 02:50 40.10203 -105.94086 20848 ft 228 kts 264°
2026-04-30 02:50 40.10097 -105.96138 20452 ft 231 kts 265°
2026-04-30 02:50 40.09988 -105.98235 20054 ft 232 kts 265°
2026-04-30 02:50 40.09881 -106.00336 19630 ft 228 kts 265°
2026-04-30 02:51 40.09776 -106.02386 19238 ft 224 kts 265°
2026-04-30 02:51 40.09672 -106.04401 18860 ft 220 kts 265°
2026-04-30 02:51 40.09569 -106.06392 18478 ft 218 kts 266°
2026-04-30 02:51 40.09467 -106.08336 18049 ft 217 kts 266°
2026-04-30 02:52 40.09364 -106.10294 17623 ft 216 kts 266°
2026-04-30 02:52 40.09261 -106.12252 17197 ft 216 kts 266°
2026-04-30 02:52 40.09158 -106.14201 16782 ft 214 kts 266°
2026-04-30 02:52 40.09058 -106.16105 16385 ft 207 kts 266°
2026-04-30 02:53 40.08942 -106.17950 16032 ft 200 kts 261°
2026-04-30 02:53 40.08594 -106.19686 15994 ft 200 kts 251°
2026-04-30 02:53 40.08092 -106.21402 15975 ft 204 kts 249°
2026-04-30 02:53 40.07564 -106.23141 15964 ft 207 kts 249°
2026-04-30 02:54 40.07031 -106.24899 15963 ft 209 kts 249°
2026-04-30 02:54 40.06495 -106.26671 15959 ft 210 kts 249°
2026-04-30 02:54 40.05964 -106.28434 15957 ft 214 kts 249°
2026-04-30 02:54 40.05410 -106.30275 15956 ft 221 kts 249°
2026-04-30 02:55 40.04842 -106.32167 15954 ft 226 kts 249°
2026-04-30 02:55 40.04262 -106.34095 15952 ft 229 kts 249°
2026-04-30 02:55 40.03682 -106.36023 15957 ft 231 kts 250°
2026-04-30 02:55 40.03090 -106.37990 15960 ft 234 kts 250°
2026-04-30 02:56 40.02490 -106.39979 15958 ft 236 kts 249°
2026-04-30 02:56 40.01876 -106.41979 15959 ft 237 kts 246°
2026-04-30 02:56 40.00970 -106.43777 15959 ft 239 kts 229°
2026-04-30 02:56 39.99700 -106.45193 15963 ft 240 kts 219°
2026-04-30 02:57 39.98360 -106.46510 15965 ft 242 kts 219°
2026-04-30 02:57 39.97031 -106.47810 15965 ft 242 kts 219°
2026-04-30 02:57 39.95687 -106.49129 15945 ft 242 kts 219°
2026-04-30 02:57 39.94327 -106.50468 15719 ft 246 kts 219°
2026-04-30 02:58 39.92959 -106.51819 15441 ft 246 kts 218°
2026-04-30 02:58 39.91594 -106.53167 15173 ft 247 kts 218°
2026-04-30 02:58 39.90218 -106.54523 14910 ft 247 kts 218°
2026-04-30 02:58 39.88852 -106.55868 14666 ft 245 kts 219°
2026-04-30 02:59 39.87510 -106.57189 14433 ft 244 kts 219°
2026-04-30 02:59 39.86150 -106.58527 14196 ft 244 kts 218°
2026-04-30 02:59 39.84797 -106.59857 13942 ft 242 kts 218°
2026-04-30 02:59 39.83435 -106.61115 13657 ft 239 kts 211°
2026-04-30 03:00 39.81889 -106.61893 13366 ft 239 kts 193°
2026-04-30 03:00 39.80246 -106.62199 13079 ft 238 kts 188°
2026-04-30 03:00 39.78602 -106.62268 12804 ft 233 kts 178°
2026-04-30 03:00 39.76986 -106.62342 12511 ft 233 kts 185°
2026-04-30 03:01 39.75375 -106.62570 12222 ft 233 kts 189°
2026-04-30 03:01 39.73816 -106.62915 11983 ft 227 kts 191°
2026-04-30 03:01 39.72287 -106.63281 11803 ft 220 kts 191°
2026-04-30 03:01 39.70802 -106.63668 11601 ft 214 kts 197°
2026-04-30 03:02 39.69505 -106.64554 11382 ft 209 kts 220°
2026-04-30 03:02 39.68583 -106.65955 11098 ft 200 kts 234°
2026-04-30 03:02 39.67748 -106.67351 10824 ft 191 kts 230°
2026-04-30 03:02 39.66972 -106.68691 10614 ft 181 kts 240°
2026-04-30 03:03 39.66607 -106.70191 10537 ft 172 kts 263°
2026-04-30 03:03 39.66277 -106.73245 9958 ft 159 kts 262°
2026-04-30 03:03 39.66123 -106.74607 9667 ft 154 kts 263°
2026-04-30 03:04 39.65974 -106.75999 9376 ft 158 kts 263°
2026-04-30 03:04 39.65823 -106.77418 9071 ft 160 kts 263°
2026-04-30 03:04 39.65667 -106.78852 8784 ft 160 kts 262°
2026-04-30 03:04 39.65516 -106.80239 8528 ft 151 kts 261°
2026-04-30 03:05 39.65360 -106.81574 8278 ft 147 kts 261°
2026-04-30 03:05 39.65201 -106.82852 8046 ft 136 kts 261°
2026-04-30 03:05 39.65070 -106.83986 7821 ft 121 kts 264°
2026-04-30 03:05 39.64977 -106.85030 7637 ft 113 kts 264°
2026-04-30 03:06 39.64878 -106.86018 7457 ft 111 kts 262°
2026-04-30 03:06 39.64767 -106.87012 7309 ft 110 kts 263°
2026-04-30 03:06 39.64665 -106.87995 7121 ft 111 kts 264°
2026-04-30 03:06 39.64560 -106.89002 6892 ft 112 kts 262°
2026-04-30 03:07 39.64450 -106.89997 6662 ft 110 kts 261°
2026-04-30 03:07 39.64347 -106.90933 6535 ft 97 kts 261°
2026-04-30 03:07 39.64273 -106.91628 6511 ft 62 kts 261°
2026-04-30 03:07 39.64218 -106.92123 6491 ft 39 kts 261°
2026-04-30 03:08 39.64154 -106.92274 6488 ft 10 kts 188°
2026-04-30 03:08 39.64101 -106.92237 6489 ft 8 kts 104°
2026-04-30 03:08 39.64102 -106.92187 6494 ft 3 kts 83°
2026-04-30 03:08 39.64106 -106.92144 6496 ft 9 kts 82°
2026-04-30 03:09 39.64118 -106.92036 6500 ft 14 kts 82°
2026-04-30 03:09 39.64132 -106.91915 6507 ft 13 kts 80°
2026-04-30 03:09 39.64145 -106.91790 6512 ft 14 kts 81°
2026-04-30 03:09 39.64160 -106.91656 6518 ft 15 kts 82°
2026-04-30 03:10 39.64176 -106.91510 6522 ft 18 kts 81°
2026-04-30 03:10 39.64196 -106.91333 6523 ft 22 kts 82°
2026-04-30 03:10 39.64214 -106.91153 6528 ft 19 kts 80°
2026-04-30 03:10 39.64232 -106.90994 6531 ft 14 kts 85°
2026-04-30 03:11 39.64200 -106.90928 6532 ft 9 kts 174°
2026-04-30 03:11 39.64170 -106.91012 6529 ft 10 kts 259°
2026-04-30 03:11 39.64132 -106.91053 6524 ft 6 kts 193°
2026-04-30 03:11 39.64121 -106.91073 6524 ft 0 kts 263°
2026-04-30 03:12 39.64120 -106.91079 6524 ft 0 kts 262°
2026-04-30 03:12 39.64120 -106.91080 6524 ft 0 kts 262°